• In Hungary
  • List of Countries
  • For 7 days
  • Water Temperature
  • Satellite Maps
  • Weather Map
  • News
  • Weather Widgets
  • user-avatar
    Login

    Hourly Weather Dyubek

    Today, 20 July, Friday

    Time Temperature Precipitation Wind Pressure Humidity
    00:00 +26°C° 0 mm 2 mps 715 mmHg 59%
    01:00 +26°C° 0 mm 2 mps 715 mmHg 57%
    02:00 +26°C° 0 mm 2 mps 715 mmHg 55%
    03:00 +25°C° 0 mm 2 mps 715 mmHg 53%
    04:00 +26°C° 0 mm 2 mps 715 mmHg 55%
    05:00 +27°C° 0 mm 2 mps 716 mmHg 56%
    06:00 +28°C° 0 mm 2 mps 716 mmHg 57%
    07:00 +29°C° 0 mm 3 mps 716 mmHg 55%
    08:00 +30°C° 0 mm 3 mps 716 mmHg 54%
    09:00 +32°C° 0 mm 4 mps 716 mmHg 56%
    10:00 +33°C° 0 mm 4 mps 716 mmHg 55%
    11:00 +34°C° 0 mm 4 mps 716 mmHg 54%
    12:00 +34°C° 0 mm 5 mps 716 mmHg 53%
    13:00 +34°C° 0.1 mm 4 mps 716 mmHg 54%
    14:00 +34°C° 0.1 mm 4 mps 716 mmHg 56%
    15:00 +33°C° 0.1 mm 4 mps 716 mmHg 58%
    16:00 +32°C° 0 mm 4 mps 716 mmHg 62%
    17:00 +30°C° 0 mm 3 mps 716 mmHg 66%
    18:00 +29°C° 0 mm 2 mps 716 mmHg 70%
    19:00 +28°C° 0 mm 2 mps 716 mmHg 74%
    20:00 +27°C° 0 mm 2 mps 716 mmHg 78%
    21:00 +25°C° 0 mm 2 mps 716 mmHg 82%
    22:00 +25°C° 0 mm 2 mps 716 mmHg 80%
    23:00 +25°C° 0 mm 2 mps 716 mmHg 77%

    Tomorrow, 21 July, Saturday

    Time Temperature Precipitation Wind Pressure Humidity
    00:00 +25°C° 0 mm 2 mps 716 mmHg 74%
    01:00 +25°C° 0 mm 2 mps 717 mmHg 73%
    02:00 +25°C° 0 mm 3 mps 717 mmHg 72%
    03:00 +24°C° 0 mm 3 mps 717 mmHg 71%
    04:00 +25°C° 0 mm 3 mps 717 mmHg 70%
    05:00 +26°C° 0 mm 3 mps 717 mmHg 69%
    06:00 +27°C° 0 mm 3 mps 717 mmHg 68%
    07:00 +28°C° 0 mm 3 mps 717 mmHg 63%
    08:00 +30°C° 0 mm 3 mps 718 mmHg 58%
    09:00 +32°C° 0 mm 4 mps 718 mmHg 53%
    10:00 +32°C° 0.1 mm 4 mps 718 mmHg 51%
    11:00 +33°C° 0.1 mm 4 mps 718 mmHg 50%
    12:00 +33°C° 0.1 mm 5 mps 718 mmHg 48%
    13:00 +33°C° 0.1 mm 4 mps 718 mmHg 49%
    14:00 +33°C° 0.1 mm 4 mps 718 mmHg 50%
    15:00 +33°C° 0.1 mm 4 mps 717 mmHg 50%
    16:00 +31°C° 0.1 mm 3 mps 717 mmHg 54%
    17:00 +30°C° 0.1 mm 3 mps 718 mmHg 57%
    18:00 +29°C° 0.1 mm 2 mps 718 mmHg 61%
    19:00 +27°C° 0 mm 2 mps 718 mmHg 65%
    20:00 +26°C° 0 mm 2 mps 718 mmHg 70%
    21:00 +25°C° 0 mm 2 mps 718 mmHg 75%
    22:00 +25°C° 0 mm 2 mps 718 mmHg 73%
    23:00 +25°C° 0 mm 2 mps 718 mmHg 71%

    Day after tomorrow, 22 July, Sunday

    Time Temperature Precipitation Wind Pressure Humidity
    00:00 +25°C° 0 mm 2 mps 718 mmHg 70%
    01:00 +25°C° 0 mm 2 mps 718 mmHg 69%
    02:00 +24°C° 0 mm 2 mps 718 mmHg 69%
    03:00 +24°C° 0 mm 2 mps 718 mmHg 68%
    04:00 +25°C° 0 mm 2 mps 718 mmHg 67%
    05:00 +26°C° 0 mm 2 mps 719 mmHg 65%
    06:00 +27°C° 0 mm 2 mps 719 mmHg 63%
    07:00 +28°C° 0 mm 2 mps 719 mmHg 59%
    08:00 +29°C° 0 mm 2 mps 719 mmHg 55%
    09:00 +30°C° 0 mm 3 mps 719 mmHg 51%
    10:00 +31°C° 0.1 mm 3 mps 719 mmHg 50%
    11:00 +33°C° 0.1 mm 3 mps 719 mmHg 49%
    12:00 +33°C° 0.1 mm 4 mps 718 mmHg 48%
    13:00 +33°C° 0.2 mm 4 mps 718 mmHg 49%
    14:00 +33°C° 0.2 mm 4 mps 718 mmHg 51%
    15:00 +33°C° 0.2 mm 4 mps 718 mmHg 52%
    16:00 +31°C° 0.3 mm 3 mps 717 mmHg 56%
    17:00 +30°C° 0.3 mm 3 mps 717 mmHg 61%
    18:00 +29°C° 0.3 mm 2 mps 717 mmHg 65%
    19:00 +28°C° 0.2 mm 2 mps 717 mmHg 69%
    20:00 +26°C° 0.2 mm 2 mps 717 mmHg 74%
    21:00 +25°C° 0.2 mm 1 mps 718 mmHg 79%
    22:00 +25°C° 0 mm 1 mps 718 mmHg 77%
    23:00 +25°C° 0 mm 1 mps 718 mmHg 75%

    23 July, Monday

    Time Temperature Precipitation Wind Pressure Humidity
    00:00 +25°C° 0 mm 1 mps 718 mmHg 73%
    01:00 +25°C° 0 mm 1 mps 717 mmHg 73%
    02:00 +25°C° 0 mm 1 mps 717 mmHg 72%
    03:00 +24°C° 0 mm 1 mps 717 mmHg 72%
    04:00 +25°C° 0.1 mm 1 mps 717 mmHg 70%
    05:00 +26°C° 0.1 mm 1 mps 718 mmHg 69%
    06:00 +26°C° 0.1 mm 1 mps 718 mmHg 67%
    07:00 +28°C° 0 mm 1 mps 718 mmHg 63%
    08:00 +29°C° 0 mm 2 mps 718 mmHg 58%
    09:00 +31°C° 0 mm 2 mps 718 mmHg 53%
    10:00 +31°C° 0.1 mm 3 mps 718 mmHg 52%
    11:00 +33°C° 0.1 mm 3 mps 718 mmHg 51%
    12:00 +33°C° 0.1 mm 4 mps 717 mmHg 50%
    13:00 +33°C° 0.2 mm 4 mps 717 mmHg 51%
    14:00 +33°C° 0.2 mm 4 mps 717 mmHg 53%
    15:00 +33°C° 0.2 mm 4 mps 716 mmHg 54%
    16:00 +31°C° 0.3 mm 3 mps 716 mmHg 57%
    17:00 +30°C° 0.3 mm 2 mps 716 mmHg 61%
    18:00 +29°C° 0.3 mm 2 mps 716 mmHg 64%
    19:00 +28°C° 0.1 mm 2 mps 716 mmHg 69%
    20:00 +26°C° 0.1 mm 2 mps 717 mmHg 73%
    21:00 +25°C° 0.1 mm 2 mps 717 mmHg 78%
    22:00 +25°C° 0.1 mm 2 mps 717 mmHg 76%
    23:00 +25°C° 0.1 mm 2 mps 717 mmHg 75%

    24 July, Tuesday

    Time Temperature Precipitation Wind Pressure Humidity
    00:00 +25°C° 0.1 mm 2 mps 717 mmHg 74%
    01:00 +25°C° 0.2 mm 2 mps 717 mmHg 74%
    02:00 +25°C° 0.2 mm 2 mps 717 mmHg 75%
    03:00 +25°C° 0.2 mm 3 mps 717 mmHg 76%
    04:00 +25°C° 0.1 mm 3 mps 717 mmHg 74%
    05:00 +26°C° 0.1 mm 3 mps 717 mmHg 72%
    06:00 +26°C° 0.1 mm 2 mps 717 mmHg 70%
    07:00 +28°C° 0.1 mm 3 mps 717 mmHg 64%
    08:00 +30°C° 0.1 mm 3 mps 718 mmHg 57%
    09:00 +32°C° 0.1 mm 4 mps 718 mmHg 51%
    10:00 +33°C° 0.2 mm 4 mps 718 mmHg 52%
    11:00 +33°C° 0.2 mm 4 mps 718 mmHg 52%
    12:00 +33°C° 0.2 mm 4 mps 718 mmHg 52%
    13:00 +33°C° 0.1 mm 4 mps 718 mmHg 53%
    14:00 +33°C° 0.1 mm 4 mps 717 mmHg 54%
    15:00 +33°C° 0.1 mm 4 mps 717 mmHg 55%
    16:00 +31°C° 0.2 mm 3 mps 717 mmHg 59%
    17:00 +31°C° 0.2 mm 2 mps 717 mmHg 63%
    18:00 +30°C° 0.2 mm 2 mps 718 mmHg 66%
    19:00 +28°C° 0.1 mm 2 mps 718 mmHg 71%
    20:00 +27°C° 0.1 mm 1 mps 718 mmHg 75%
    21:00 +25°C° 0.1 mm 1 mps 718 mmHg 80%
    22:00 +25°C° 0 mm 1 mps 718 mmHg 77%
    23:00 +25°C° 0 mm 1 mps 718 mmHg 74%

    25 July, Wednesday

    Time Temperature Precipitation Wind Pressure Humidity
    00:00 +25°C° 0 mm 1 mps 718 mmHg 71%
    01:00 +25°C° 0 mm 1 mps 718 mmHg 69%
    02:00 +25°C° 0 mm 2 mps 718 mmHg 67%
    03:00 +25°C° 0 mm 2 mps 718 mmHg 64%
    04:00 +25°C° 0 mm 2 mps 719 mmHg 62%
    05:00 +26°C° 0 mm 1 mps 719 mmHg 61%
    06:00 +27°C° 0 mm 1 mps 719 mmHg 59%
    07:00 +29°C° 0 mm 2 mps 719 mmHg 55%
    08:00 +31°C° 0 mm 2 mps 719 mmHg 51%
    09:00 +32°C° 0 mm 2 mps 719 mmHg 48%
    10:00 +34°C° 0 mm 3 mps 719 mmHg 46%
    11:00 +35°C° 0 mm 3 mps 719 mmHg 45%
    12:00 +36°C° 0 mm 4 mps 719 mmHg 43%
    13:00 +36°C° 0 mm 4 mps 718 mmHg 44%
    14:00 +36°C° 0 mm 4 mps 718 mmHg 45%
    15:00 +35°C° 0 mm 4 mps 718 mmHg 46%
    16:00 +34°C° 0 mm 3 mps 718 mmHg 49%
    17:00 +33°C° 0 mm 3 mps 718 mmHg 53%
    18:00 +31°C° 0 mm 2 mps 718 mmHg 56%
    19:00 +30°C° 0 mm 2 mps 718 mmHg 59%
    20:00 +28°C° 0 mm 2 mps 718 mmHg 61%
    21:00 +27°C° 0 mm 2 mps 718 mmHg 64%
    22:00 +27°C° 0 mm 2 mps 718 mmHg 62%
    23:00 +27°C° 0 mm 2 mps 718 mmHg 59%
    Show more